GW5470 Weather Reports


time (UTC)temp
F
wind
direction
speed
knots
gust
knots
rain 1hr
in
rain 24hr
in
rain mn
in
humidity
%
barometer
mb
20260502170225 54 222 1.7 1.7 0.00 0.01 0.01 41 1017.3
20260502164212 52 284 5.2 6.1 0.00 0.01 0.01 41 1017.8
20260502163708 52 289 1.7 2.6 0.00 0.01 0.01 43 1017.5
20260502163205 52 236 2.6 3.5 0.00 0.01 0.01 44 1017.6
20260502162701 51 338 5.2 7.0 0.00 0.01 0.01 42 1017.7
20260502162158 51 340 5.2 6.1 0.00 0.01 0.01 44 1017.6
20260502161655 52 237 1.7 2.6 0.00 0.01 0.01 45 1017.7
20260502161152 51 287 4.3 6.1 0.00 0.01 0.01 41 1017.9
20260502160650 50 33 5.2 7.8 0.00 0.01 0.01 43 1018.0
20260502160149 51 16 4.3 6.1 0.00 0.01 0.01 45 1017.9
20260502152103 50 293 7.0 11.3 0.00 0.01 0.01 47 1017.8
20260502151600 50 262 3.5 5.2 0.00 0.01 0.01 48 1017.9
20260502151057 50 257 2.6 3.5 0.00 0.01 0.01 51 1017.9
20260502150555 50 222 2.6 2.6 0.00 0.01 0.01 46 1017.9
20260502130439 42 232 0.9 0.9 0.00 0.01 0.01 81 1017.9
20260502123422 39 214 0.0 0.0 0.00 0.01 0.01 96 1017.9
20260502122919 37 223 0.0 0.0 0.00 0.01 0.01 98 1017.9
20260502122415 36 223 0.0 0.0 0.00 0.01 0.01 98 1018.1
20260502121914 36 223 0.0 0.0 0.00 0.01 0.01 99 1018.1
20260502121410 35 223 0.0 0.0 0.00 0.01 0.01 99 1017.8
20260502120908 34 223 0.0 0.0 0.00 0.01 0.01 99 1017.7
20260502120404 33 224 0.0 0.0 0.00 0.01 0.01 99 1018.0
20260502115901 33 223 0.0 0.0 0.00 0.01 0.01 99 1017.8
20260502115358 33 223 0.0 0.0 0.00 0.01 0.01 99 1017.7
20260502114854 32 223 0.0 0.0 0.00 0.01 0.01 99 1017.8
20260502114352 32 224 0.0 0.0 0.00 0.01 0.01 99 1017.8
20260502113848 32 224 0.0 0.0 0.00 0.01 0.01 99 1017.9
20260502113346 32 224 0.0 0.0 0.00 0.01 0.01 99 1017.9
20260502112844 32 223 0.0 0.0 0.00 0.01 0.01 99 1017.8
20260502112341 31 224 0.0 0.0 0.00 0.01 0.01 99 1017.7
20260502111839 31 224 0.0 0.0 0.00 0.01 0.01 99 1017.9
20260502111336 31 224 0.0 0.0 0.00 0.01 0.01 99 1017.7
20260502110834 31 224 0.0 0.0 0.00 0.01 0.01 99 1017.8
20260502110331 31 224 0.0 0.0 0.00 0.01 0.01 99 1017.8
20260502105829 31 224 0.0 0.0 0.00 0.01 0.01 99 1017.7
20260502105325 31 224 0.0 0.0 0.00 0.01 0.01 99 1017.6
20260502104823 31 224 0.0 0.0 0.00 0.01 0.01 99 1017.8
20260502104320 31 224 0.0 0.0 0.00 0.01 0.01 99 1017.8
20260502103818 31 224 0.0 0.0 0.00 0.01 0.01 99 1017.7
20260502103315 31 224 0.0 0.0 0.00 0.01 0.01 99 1017.8
20260502102812 31 224 0.0 0.0 0.00 0.01 0.01 99 1017.8
20260502102308 31 224 0.0 0.0 0.00 0.01 0.01 99 1018.0
20260502101806 31 224 0.0 0.0 0.00 0.01 0.01 99 1018.0
20260502101304 31 224 0.0 0.0 0.00 0.01 0.01 99 1018.0
20260502100802 31 224 0.0 0.0 0.00 0.01 0.01 99 1017.8
20260502100301 31 224 0.0 0.0 0.00 0.01 0.01 99 1017.8
20260502091235 32 224 0.0 0.0 0.00 0.01 0.01 99 1018.0
20260502090732 32 224 0.0 0.0 0.05 0.01 0.01 99 1018.0
20260502090229 32 224 0.0 0.0 0.05 0.01 0.01 99 1018.1
20260502071130 34 223 0.0 0.0 0.00 0.00 0.00 98 1017.3
20260502070627 34 223 0.0 0.0 0.00 0.00 0.00 98 1017.3
20260502070125 34 224 0.0 0.0 0.00 0.00 0.00 98 1017.5
20260502065623 34 224 0.0 0.0 0.00 0.00 0.00 98 1017.6
20260502065120 34 224 0.0 0.0 0.00 0.00 0.00 98 1017.6
20260502064619 34 224 0.0 0.0 0.00 0.00 0.00 98 1017.7
20260502064116 35 224 0.0 0.0 0.00 0.00 0.00 98 1017.7
20260502063614 35 224 0.0 0.0 0.00 0.00 0.00 98 1017.7
20260502063111 35 224 0.0 0.0 0.00 0.00 0.00 98 1017.8
20260502062608 35 224 0.0 0.0 0.00 0.00 0.00 98 1017.8
20260502062106 35 223 0.0 0.0 0.00 0.00 0.00 98 1017.9
20260502061604 35 223 0.0 0.0 0.00 0.00 0.00 98 1017.9
20260502061102 35 223 0.0 0.0 0.00 0.00 0.00 98 1017.9
20260502060601 35 223 0.0 0.0 0.00 0.00 0.00 98 1018.1
20260502060059 36 223 0.0 0.0 0.00 0.00 0.00 98 1018.0
20260502055556 36 223 0.0 0.0 0.00 0.00 0.00 98 1017.9
20260502055054 36 223 0.0 0.0 0.00 0.00 0.00 98 1018.0
20260502054553 37 223 0.0 0.0 0.00 0.00 0.00 98 1018.1
20260502054049 37 223 0.0 0.0 0.00 0.00 0.00 98 1018.2
20260502053547 37 224 0.0 0.0 0.00 0.00 0.00 98 1018.2
20260502053044 37 224 0.0 0.0 0.00 0.00 0.00 98 1018.0
20260502052543 37 223 0.0 0.0 0.00 0.00 0.00 98 1018.0
20260502052040 38 223 0.0 0.0 0.00 0.00 0.00 98 1018.1
20260502051538 38 223 0.0 0.0 0.00 0.00 0.00 98 1018.1
20260502051036 39 223 0.0 0.0 0.00 0.00 0.00 98 1018.0
20260502050531 39 224 0.0 0.0 0.00 0.00 0.00 98 1018.0
20260502050029 40 224 0.0 0.0 0.00 0.00 0.00 98 1017.9
20260502045525 40 193 0.0 0.0 0.00 0.00 0.00 98 1018.1
20260502045023 40 222 0.0 0.0 0.00 0.00 0.00 98 1018.2
20260502044519 40 222 0.0 0.0 0.00 0.00 0.00 98 1018.2
20260502044015 40 221 0.0 0.0 0.00 0.00 0.00 98 1018.2
20260502043513 40 221 0.0 0.0 0.00 0.00 0.00 98 1018.2
20260502043009 39 223 0.0 0.0 0.00 0.00 0.00 98 1018.3
20260502042504 39 222 0.0 0.9 0.00 0.00 0.00 98 1018.3
20260502042002 39 227 0.0 0.0 0.00 0.00 0.00 98 1018.4
20260502041500 39 227 0.0 0.0 0.00 0.00 0.00 98 1018.1
20260502040956 38 227 0.0 0.0 0.00 0.00 0.00 98 1018.3
20260502040453 38 227 0.0 0.0 0.00 0.00 0.00 98 1018.1
20260502035949 38 227 0.0 0.0 0.00 0.05 0.05 98 1018.1
20260502035445 38 228 0.0 0.0 0.00 0.05 0.05 97 1018.0
20260502034944 38 228 0.0 0.0 0.00 0.05 0.05 98 1018.1
20260502034442 38 228 0.0 0.0 0.00 0.05 0.05 97 1017.9
20260502033940 37 227 0.0 0.0 0.00 0.05 0.05 97 1018.1
20260502033437 37 228 0.0 0.0 0.00 0.05 0.05 97 1018.1
20260502032934 37 228 0.0 0.0 0.00 0.05 0.05 97 1018.0
20260502032430 37 227 0.0 0.0 0.00 0.05 0.05 97 1018.2
20260502031927 37 227 0.0 0.0 0.00 0.05 0.05 97 1018.3
20260502031426 37 228 0.0 0.0 0.00 0.05 0.05 97 1018.3
20260502030924 37 227 0.0 0.0 0.00 0.05 0.05 97 1018.2
20260502030422 36 227 0.0 0.0 0.00 0.05 0.05 97 1018.1
20260502025919 36 227 0.0 0.0 0.00 0.05 0.05 97 1018.4
20260502025416 37 228 0.0 0.0 0.00 0.05 0.05 97 1018.3
20260502024914 37 228 0.0 0.0 0.00 0.05 0.05 97 1018.1
20260502024412 37 228 0.0 0.0 0.00 0.05 0.05 96 1018.1
20260502023910 37 227 0.0 0.0 0.00 0.05 0.05 96 1018.0
20260502023407 37 228 0.0 0.0 0.00 0.05 0.05 96 1018.0
20260502022904 37 227 0.0 0.0 0.00 0.05 0.05 96 1018.0
20260502022400 37 227 0.0 0.0 0.00 0.05 0.05 96 1017.9
20260502021857 38 228 0.0 0.0 0.00 0.05 0.05 96 1017.7
20260502021355 38 227 0.0 0.0 0.00 0.05 0.05 96 1017.7
20260502020852 38 227 0.0 0.0 0.00 0.05 0.05 95 1017.4
20260502020350 38 227 0.0 0.0 0.00 0.05 0.05 95 1017.4
20260502015846 38 227 0.0 0.0 0.00 0.05 0.05 95 1017.6
20260502015344 38 227 0.0 0.0 0.00 0.05 0.05 95 1017.4
20260502014841 39 227 0.0 0.0 0.00 0.05 0.05 95 1017.3
20260502014338 39 227 0.0 0.0 0.00 0.05 0.05 95 1017.1
20260502013834 39 227 0.0 0.0 0.00 0.05 0.05 94 1017.2
20260502013330 39 227 0.0 0.0 0.00 0.05 0.05 94 1017.4
20260502012826 40 227 0.0 0.0 0.00 0.05 0.05 94 1017.4
20260502012325 39 227 0.0 0.0 0.00 0.05 0.05 93 1017.3
20260502011821 40 227 0.0 0.0 0.00 0.05 0.05 92 1017.3
20260502011317 40 227 0.0 0.0 0.00 0.05 0.05 92 1017.0
20260502010815 40 227 0.0 0.0 0.00 0.05 0.05 91 1016.7
20260502010311 41 227 0.0 0.0 0.00 0.05 0.05 90 1016.8
20260502005808 41 227 0.0 0.0 0.00 0.05 0.05 90 1016.5
20260502005306 42 228 0.0 0.0 0.00 0.05 0.05 89 1016.6
20260502004803 42 227 0.0 0.0 0.00 0.05 0.05 88 1016.3
20260502004259 42 227 0.0 0.0 0.00 0.05 0.05 87 1016.3
20260502003757 43 227 0.0 0.0 0.00 0.05 0.05 85 1016.3
20260502003254 44 227 0.0 0.0 0.00 0.05 0.05 84 1016.0
20260502002749 45 227 0.0 0.0 0.00 0.05 0.05 81 1016.2
20260502002247 45 234 0.0 0.9 0.00 0.05 0.05 80 1016.1
20260502001744 46 227 0.0 0.9 0.00 0.05 0.05 77 1016.1
20260502001243 46 227 0.0 0.0 0.00 0.05 0.05 75 1015.9
20260502000740 47 216 0.0 0.0 0.00 0.05 0.05 73 1016.1
20260502000240 48 221 0.0 0.0 0.00 0.05 0.05 71 1016.0
20260501235732 48 255 0.9 1.7 0.00 0.05 0.05 69 1015.9
20260501235228 49 201 0.9 1.7 0.00 0.05 0.05 68 1015.8
20260501234724 49 225 0.0 0.0 0.00 0.05 0.05 71 1015.6
20260501234221 49 246 0.0 0.0 0.00 0.05 0.05 68 1015.6
20260501233720 49 235 1.7 1.7 0.00 0.05 0.05 64 1015.6
20260501233218 49 230 0.9 1.7 0.00 0.05 0.05 65 1015.2
20260501232713 50 238 0.9 1.7 0.00 0.05 0.05 64 1015.3
20260501232210 50 355 5.2 6.1 0.00 0.05 0.05 63 1015.3
20260501231708 50 345 1.7 3.5 0.00 0.05 0.05 64 1015.4
20260501231206 51 336 4.3 6.1 0.00 0.05 0.05 63 1015.5
20260501230704 51 341 3.5 5.2 0.00 0.05 0.05 63 1015.3
20260501230202 51 219 1.7 1.7 0.00 0.05 0.05 62 1015.3
20260501225659 51 200 1.7 1.7 0.00 0.05 0.05 64 1015.4
20260501225156 51 229 1.7 1.7 0.00 0.05 0.05 64 1015.3
20260501224652 51 309 3.5 3.5 0.00 0.05 0.05 62 1015.2
20260501224150 51 313 3.5 5.2 0.00 0.05 0.05 63 1015.2
20260501223646 51 187 4.3 6.1 0.00 0.05 0.05 64 1015.1
20260501223142 51 298 3.5 3.5 0.00 0.05 0.05 64 1015.0
20260501222638 52 312 4.3 5.2 0.00 0.05 0.05 63 1014.8
20260501222136 52 12 5.2 7.0 0.00 0.05 0.05 64 1014.8
20260501221633 53 23 3.5 5.2 0.00 0.05 0.05 62 1014.3
20260501221130 53 245 4.3 6.1 0.00 0.05 0.05 60 1014.3
20260501220628 54 294 2.6 5.2 0.00 0.05 0.05 58 1014.4
20260501220125 55 108 1.7 1.7 0.00 0.05 0.05 60 1014.7
20260501215622 56 318 4.3 6.1 0.00 0.05 0.05 61 1014.7
20260501215117 56 228 1.7 2.6 0.00 0.05 0.05 61 1014.4
20260501214612 55 357 5.2 8.7 0.00 0.05 0.05 60 1014.1
20260501214108 55 232 2.6 3.5 0.00 0.05 0.05 58 1013.9
20260501213605 56 312 4.3 6.1 0.00 0.05 0.05 59 1013.9
20260501213101 56 9 0.9 2.6 0.00 0.05 0.05 61 1013.7
20260501212557 54 115 1.7 2.6 0.00 0.05 0.05 62 1013.7
20260501212054 54 287 3.5 6.1 0.00 0.05 0.05 63 1013.5
20260501211551 54 250 4.3 5.2 0.00 0.05 0.05 64 1013.4
20260501211049 55 227 2.6 3.5 0.00 0.05 0.05 65 1013.5
20260501210544 55 216 0.9 1.7 0.00 0.05 0.05 66 1013.4
20260501210042 54 241 3.5 5.2 0.00 0.05 0.05 66 1013.5
20260501205538 54 293 2.6 3.5 0.00 0.05 0.05 68 1013.4
20260501205036 55 175 3.5 5.2 0.00 0.05 0.05 68 1013.2
20260501204532 55 235 2.6 3.5 0.00 0.05 0.05 68 1013.5
20260501204028 54 193 1.7 1.7 0.00 0.05 0.05 72 1013.5
20260501203525 54 250 3.5 3.5 0.00 0.05 0.05 72 1013.5
20260501203023 54 223 0.0 0.9 0.00 0.05 0.05 76 1013.4
20260501202520 55 278 5.2 9.6 0.00 0.05 0.05 73 1013.4
20260501202016 55 229 1.7 3.5 0.00 0.05 0.05 73 1013.4
20260501201513 54 234 0.9 1.7 0.00 0.05 0.05 76 1013.4
20260501201009 54 198 0.0 0.9 0.00 0.05 0.05 79 1013.3
20260501200507 54 237 1.7 1.7 0.00 0.05 0.05 78 1013.5
20260501200004 53 214 0.9 0.9 0.00 0.05 0.05 80 1013.6
20260501195500 52 223 0.0 0.9 0.00 0.05 0.05 82 1013.6
20260501194956 51 207 0.9 0.9 0.00 0.05 0.05 83 1013.8
20260501194452 51 207 0.9 0.9 0.00 0.05 0.05 85 1013.7
20260501193948 51 203 0.0 0.9 0.00 0.05 0.05 83 1013.8
20260501193447 51 230 0.0 0.0 0.00 0.05 0.05 85 1013.8
20260501192944 51 217 0.9 1.7 0.00 0.05 0.05 83 1013.8
20260501192441 51 208 0.9 0.9 0.00 0.05 0.05 83 1013.9
20260501191938 50 227 0.0 0.0 0.00 0.05 0.05 85 1014.0
20260501191435 50 224 0.0 0.9 0.00 0.05 0.05 85 1013.9
20260501190932 50 206 0.0 0.9 0.00 0.05 0.05 86 1013.9
20260501190429 50 183 0.9 0.9 0.00 0.05 0.05 85 1013.9
20260501185928 50 222 0.9 0.9 0.00 0.05 0.05 85 1014.1
20260501185425 50 211 1.7 2.6 0.07 0.05 0.05 84 1013.9
20260501184921 50 176 0.0 0.9 0.07 0.05 0.05 86 1013.9
20260501184417 50 214 1.7 1.7 0.00 0.04 0.04 86 1013.9
20260501183912 50 208 0.9 0.9 0.00 0.04 0.04 87 1013.8
20260501183410 50 207 0.9 0.9 0.00 0.04 0.04 86 1013.7
20260501182906 50 221 0.9 0.9 0.00 0.04 0.04 84 1013.6
20260501182403 51 299 1.7 1.7 0.05 0.04 0.04 83 1013.6
20260501181900 51 178 0.0 0.0 0.12 0.04 0.04 83 1013.4
20260501181357 52 204 0.9 1.7 0.12 0.03 0.03 79 1013.4
20260501180854 53 217 0.9 1.7 0.05 0.02 0.02 74 1013.4
20260501180350 54 203 0.9 0.9 0.00 0.01 0.01 69 1013.2
20260501175848 54 249 1.7 2.6 0.00 0.01 0.01 67 1012.9
20260501175344 54 267 1.7 1.7 0.00 0.01 0.01 67 1013.0
20260501174841 54 252 2.6 2.6 0.00 0.01 0.01 69 1013.0
20260501174338 54 136 1.7 1.7 0.00 0.01 0.01 69 1013.1
20260501173836 55 179 0.9 1.7 0.00 0.01 0.01 69 1013.0
20260501173334 54 218 0.0 0.9 0.00 0.01 0.01 67 1013.0
20260501172829 54 173 1.7 2.6 0.00 0.01 0.01 67 1012.9